Location: ČR
(50.0000°N, 15.0000°E)
Time: 14:07:21
(UTC+00:00)

O/OREOS (USA 219) - Pass Details

Date: 15 December 2021
Orbit: 621 x 646 km, 72.0° (Epoch: 22 May)

Event Time Altitude Azimuth Distance (km) Brightness Sun altitude
Rises 17:50:59 0° 328° (NNW) 2,962 ? -26.4°
Reaches altitude 10° 17:53:20 10° 322° (NW) 2,050 ? -26.8°
Maximum altitude 17:57:43 45° 250° (WSW) 879 ? -27.5°
Enters shadow 17:59:50 27° 194° (SSW) 1,248 ? -27.8°
